sat.trackr.live / text

‹ back to catalog

ONEWEB-0042

NORAD 45441 · 2020-020T

PAYLOAD ACTIVE UNKNOWN

§ Identity

Operator
Country
UK
Launch date
2020-03-21
Launch site
TYMSC
Launch vehicle
Mass (kg)
RCS (m²)

Purposes: comms

External: N2YO · Heavens-Above · Gunter

§ Orbital elements

Epoch: 2026-05-25T01:56:54.808224Z

Period
109.80 min
Inclination
87.8917°
Eccentricity
0.0001896
Mean motion
13.11416774 rev/d
Perigee alt
1,216.2 km
Apogee alt
1,219.1 km
Semi-major
7,595.8 km
B*
-1.4798e-3
RAAN
25.6543°
Arg perigee
80.8245°
Mean anomaly
279.3098°
Rev number
29,963

§ Raw data

ONEWEB-00421 45441U 20020T   26145.08118991 -.00000512  00000+0 -14798-2 0  99972 45441  87.8917  25.6543 0001896  80.8245 279.3098 13.11416774299638

JSON: /api/v1/satellites/45441 · /tle

For live sub-satellite position, see the globe view (requires WebGL).

§ Visibility from observer

Set your observer location to see the next 7 days of passes ≥ 10°. The values pass through the URL so the page stays shareable.

No JS? Fill the form by hand. The geolocation button needs JavaScript.